Lapse_Rate
6.9 6.9 7.1 7.4 7.2 7.1 6.9 6.9 6.6 6.4 6.8 7.4 7.0 7.2 7.1 6.9 6.7 6.6 6.6 6.6 6.7 6.8 6.9 6.9 7.1 7.2 7.1 7.1 6.9 7.1 7.1 7.1 7.1 7.0 6.4 6.3 6.2 6.1
7.0 6.9 6.8 7.2 7.5 7.5 7.2 6.8 6.5 6.4 6.1 7.2 7.5 7.3 7.2 7.1 7.0 6.9 6.9 6.8 6.8 6.8 6.9 7.1 7.3 7.4 7.4 7.1 7.1 7.1 7.1 7.1 7.1 6.9 6.7 6.4 6.4 6.1
6.9 6.7 7.2 7.6 7.4 7.6 7.5 7.3 6.9 6.7 6.3 6.4 7.1 7.4 7.5 7.5 7.4 7.4 7.4 7.4 7.2 7.1 7.2 7.3 7.4 7.5 7.5 7.3 7.3 7.1 7.2 7.2 7.1 7.0 6.8 6.6 6.4 6.3
7.0 7.0 7.2 7.4 7.7 7.6 7.5 7.3 7.2 7.1 6.6 6.3 6.2 6.8 7.4 7.8 7.8 7.9 7.8 7.9 7.9 7.7 7.4 7.3 7.4 7.5 7.7 7.6 7.3 7.3 7.3 7.1 7.0 7.1 7.0 6.8 6.5 6.4
6.7 7.2 7.4 7.3 7.5 7.7 7.8 7.6 7.2 7.1 6.5 6.0 6.4 6.4 7.0 7.4 7.8 7.9 8.1 8.2 8.1 7.9 7.7 7.4 7.2 7.4 7.7 7.5 7.4 7.5 7.4 7.0 7.0 7.4 7.1 6.9 6.7 6.7
6.4 6.6 7.1 7.7 7.7 7.6 7.6 7.6 7.4 6.8 6.3 6.2 6.2 6.0 6.6 7.2 7.4 7.9 8.0 8.0 7.8 7.8 7.7 7.4 6.9 6.9 7.2 7.6 7.5 7.3 7.2 7.0 7.4 7.3 7.1 6.8 6.6 6.7
5.8 6.5 6.5 7.2 7.7 7.5 7.5 7.7 7.5 7.1 6.5 6.3 6.4 6.4 6.5 6.6 6.8 7.1 7.6 7.8 7.8 7.2 7.8 7.0 7.0 6.8 6.9 7.1 7.1 7.1 7.1 7.5 7.4 6.9 6.8 6.8 6.4 6.3
5.7 5.8 6.2 6.8 7.6 7.6 7.5 7.7 7.8 7.6 7.1 6.9 7.1 6.9 7.1 7.2 6.9 6.9 6.8 7.2 7.6 7.3 6.9 7.0 6.6 6.2 7.0 6.5 7.2 6.9 6.9 7.0 7.1 6.7 6.4 6.3 6.0 6.0
6.3 7.0 7.2 6.9 6.9 6.9 7.2 7.4 7.6 7.6 7.2 7.0 7.2 7.4 7.4 7.3 6.8 6.8 6.9 6.8 6.6 6.5 6.7 6.9 6.6 6.0 5.8 5.7 5.3 6.1 6.5 6.5 6.5 6.4 6.3 5.9 5.8 5.6
6.7 7.0 7.2 7.3 7.1 6.9 7.0 7.3 7.7 7.8 7.4 7.2 7.3 7.4 7.6 7.5 7.1 7.0 7.0 6.8 6.8 6.6 6.8 6.7 5.7 5.2 6.1 5.6 5.9 5.3 5.9 5.9 5.9 6.3 6.0 5.7 5.4 5.5
6.3 6.6 6.8 6.9 7.0 7.1 7.3 7.4 7.6 7.9 7.7 7.4 7.3 7.4 7.1 7.6 7.7 7.2 7.2 7.2 7.2 7.2 7.1 6.7 6.4 6.1 6.0 5.8 5.3 5.4 5.7 5.3 5.5 5.7 5.8 5.7 5.4 5.5
5.9 6.2 6.2 6.4 6.7 6.8 7.1 7.3 7.6 7.6 7.3 7.7 7.4 7.7 7.6 8.1 8.1 8.0 7.9 7.5 7.4 7.2 6.9 6.5 6.3 6.2 5.9 6.0 5.6 5.1 5.3 5.4 5.4 5.6 5.7 5.6 5.4 5.6
5.6 5.8 5.8 5.5 6.1 6.9 7.1 7.0 7.0 7.1 7.2 7.4 7.6 7.8 7.8 7.7 7.9 7.6 7.6 7.8 7.7 7.3 7.0 6.3 6.3 6.0 6.1 6.1 5.8 4.9 5.2 5.0 5.5 5.5 5.6 5.5 5.2 5.5
5.9 6.0 6.6 6.5 6.7 6.8 6.9 7.2 7.0 7.0 7.2 7.4 7.7 7.7 7.7 7.8 7.5 7.7 7.6 7.5 7.5 7.3 7.0 6.3 6.4 6.5 6.0 5.7 5.3 5.2 5.2 5.6 5.3 5.2 5.2 5.3 4.9 4.8
5.7 6.1 6.0 6.2 6.5 6.5 6.7 6.9 7.2 7.4 7.1 7.4 7.5 7.9 7.6 7.8 8.0 7.9 7.7 7.4 7.1 7.2 7.2 6.9 6.4 6.0 6.1 5.9 5.9 5.3 5.3 5.5 5.4 5.2 5.0 5.0 4.7 4.5
6.2 6.0 6.0 6.5 6.4 6.4 6.6 6.9 7.0 7.1 7.7 7.3 7.2 7.3 7.4 7.6 7.8 7.6 7.5 7.4 6.9 6.8 6.9 6.8 6.5 6.3 5.8 6.1 5.8 5.4 5.9 5.5 5.4 4.8 4.7 4.5 4.5 4.6
5.9 6.3 6.3 6.2 5.9 6.0 6.5 6.6 6.7 6.6 6.8 7.4 7.5 7.5 7.5 7.6 7.5 7.3 7.2 7.3 6.8 6.9 6.8 6.5 6.4 6.3 6.5 5.9 5.8 5.2 5.2 5.3 4.4 4.4 4.3 4.6 4.5 4.2
6.0 5.8 6.0 6.1 6.2 5.9 5.9 6.1 6.4 6.7 7.1 7.1 7.1 7.0 7.1 7.2 7.2 7.1 7.0 6.8 6.7 7.0 7.1 6.7 6.5 6.8 6.4 6.2 5.6 4.8 4.1 4.2 4.1 4.1 4.5 4.5 4.3 3.3
6.5 6.5 6.7 6.6 6.7 6.6 6.8 6.8 7.2 7.4 7.3 7.5 7.6 7.3 7.4 7.1 7.1 6.7 6.6 6.2 6.3 6.5 6.6 6.5 6.4 6.5 6.3 6.1 4.8 4.7 4.8 5.2 4.9 4.8 4.7 4.4 3.5 3.6
6.9 6.9 7.1 7.1 7.3 7.4 7.6 7.7 7.8 7.9 8.0 8.0 7.9 7.8 7.9 7.9 7.9 7.7 6.6 6.7 6.5 6.5 6.3 6.5 6.4 5.8 5.2 5.1 4.8 4.5 5.0 4.9 4.1 4.4 4.2 4.0 4.1 4.2
6.7 6.8 7.1 7.4 7.5 7.7 8.0 7.7 7.6 7.7 7.8 7.8 7.7 7.9 8.1 8.0 7.7 7.3 7.1 7.1 6.9 6.8 6.5 6.3 6.1 5.4 5.0 4.8 4.8 4.9 4.8 4.4 4.0 3.5 3.9 4.2 4.2 4.2
6.7 7.0 7.2 7.2 7.3 7.6 7.6 7.7 7.9 8.0 8.0 7.8 7.9 8.0 7.5 7.1 7.4 7.4 7.5 7.3 7.3 6.2 4.9 5.2 5.2 5.3 4.9 4.9 4.5 4.4 4.0 2.8 3.5 3.9 4.2 4.2 4.2 4.2
6.6 7.2 7.3 7.3 7.5 7.6 7.8 7.9 8.2 8.2 7.8 7.4 7.3 7.2 7.3 7.1 7.3 7.3 6.4 5.4 5.3 5.2 5.5 5.4 4.9 4.4 3.9 4.1 3.6 3.9 3.5 4.1 4.3 3.9 4.2 4.3 4.1 4.1
Wind_Speed
15 15 13 12 11 12 12 12 13 13 14 13 5 8 8 12 12 11 13 18 23 24 24 24 24 22 20 19 17 15 14 12 11 10 8 7 7 8
12 16 15 12 13 12 11 12 12 13 13 11 11 8 6 6 8 12 13 16 23 23 24 26 25 24 22 20 18 16 14 13 13 9 7 7 8 8
15 15 17 16 12 11 10 12 12 11 12 11 12 11 10 9 7 10 9 10 12 23 26 25 25 25 25 22 20 17 15 13 12 12 10 9 8 10
15 15 17 13 16 14 11 15 13 13 10 14 14 9 10 8 8 7 6 8 9 17 24 24 25 25 25 24 19 16 16 14 13 11 11 11 11 13
13 15 17 14 14 11 12 12 11 10 12 11 11 9 7 3 2 2 3 3 6 11 14 18 23 22 21 19 18 18 17 16 15 15 16 14 15 15
11 15 15 14 14 14 14 14 12 10 10 11 10 9 5 3 5 4 3 4 5 6 11 13 15 18 19 18 18 17 16 17 17 16 16 18 17 17
14 15 15 16 15 16 11 12 11 10 9 10 10 7 3 3 5 4 7 5 2 4 5 5 6 9 11 15 15 18 18 19 18 20 20 20 18 16
12 12 13 13 16 18 20 19 13 12 13 11 11 11 11 10 9 7 5 3 3 6 9 8 6 5 6 11 19 20 21 22 23 23 21 21 19 19
10 8 9 6 10 14 16 19 18 18 17 14 13 13 13 13 13 11 11 8 9 6 10 5 6 7 6 12 18 22 23 22 22 20 20 22 21 21
6 7 8 9 8 6 8 9 10 13 12 11 18 19 14 8 15 14 16 9 4 4 9 3 1 1 5 7 20 16 20 18 19 19 20 20 20 17
8 8 9 8 9 10 6 8 9 11 8 14 17 15 14 10 7 8 3 7 2 3 5 4 4 3 2 3 10 16 17 18 21 21 19 21 21 18
11 10 9 10 9 10 6 7 10 8 6 8 9 13 13 14 13 12 8 10 4 2 6 7 5 5 4 4 4 10 15 21 20 22 21 22 24 12
8 8 6 8 10 8 8 8 10 3 5 5 7 8 7 9 7 9 14 13 10 6 9 9 5 6 2 4 3 4 6 9 9 16 21 22 20 14
15 8 3 8 7 10 8 12 15 8 4 4 4 7 7 6 4 4 6 9 5 5 13 14 6 9 5 3 5 4 5 7 10 7 10 16 16 12
10 9 9 11 11 9 13 12 8 4 4 3 5 6 4 4 4 3 4 5 8 6 9 6 3 12 10 8 7 9 9 5 8 8 7 8 6 9
8 8 7 6 6 6 5 6 3 3 4 6 5 2 2 2 1 2 2 1 2 4 8 6 8 7 4 6 7 10 7 4 8 7 6 6 9 11
13 3 3 2 6 6 6 4 2 2 5 5 4 3 2 2 2 3 2 1 3 5 6 8 12 13 9 8 8 7 8 7 6 7 6 5 4 6
9 9 8 6 7 6 6 6 4 4 5 5 4 4 4 3 3 2 3 4 7 7 9 10 13 14 11 9 10 8 4 5 7 7 6 5 5 4
9 10 7 4 4 4 4 4 4 4 3 4 4 4 4 4 6 6 7 8 8 7 8 9 11 12 13 8 1 3 8 7 8 7 7 6 5 6
5 5 3 3 4 3 5 5 3 2 3 3 3 3 4 5 5 7 8 9 11 9 7 5 5 4 7 7 6 3 7 7 5 6 6 3 4 11
3 2 4 4 3 4 5 4 3 3 3 2 2 3 3 5 5 7 8 11 12 9 8 6 4 9 8 8 7 4 4 9 6 6 6 4 3 4
3 1 2 2 3 4 3 2 1 2 2 0 1 2 2 0 3 5 6 9 7 7 7 5 5 5 6 8 11 9 5 4 8 10 10 6 5 7
3 3 3 2 2 1 0 1 2 2 3 3 4 4 3 4 4 5 6 7 9 9 10 7 4 4 6 7 8 8 8 7 4 3 4 6 10 12
Wind_Direction
231 230 229 236 238 240 239 237 244 263 269 276 264 214 231 238 239 223 225 210 201 200 196 191 187 183 180 187 191 193 198 201 207 206 218 243 257 265
231 234 235 238 238 236 235 239 237 243 261 265 264 249 223 223 228 224 224 201 206 200 196 191 184 182 182 189 191 197 198 200 207 204 217 222 232 242
236 239 240 237 242 236 232 237 238 233 243 258 265 265 242 228 216 212 192 194 199 200 197 191 186 184 185 190 189 195 197 202 207 207 205 212 225 201
233 236 241 242 241 240 236 236 234 232 232 242 254 253 237 230 231 196 190 183 190 201 194 189 189 191 188 188 188 192 197 199 208 209 198 189 175 146
242 239 244 239 243 238 231 236 237 234 233 242 246 250 227 183 185 196 186 166 171 190 204 198 190 190 193 182 188 192 197 194 199 206 191 175 154 143
256 252 247 238 242 244 240 232 231 228 229 240 245 245 210 189 210 191 198 199 195 179 190 199 206 193 190 188 184 195 197 189 194 192 175 159 155 154
252 257 251 244 235 236 238 232 224 230 233 236 242 234 192 182 210 189 218 187 188 175 194 182 181 207 196 178 190 192 190 181 172 171 162 157 162 159
233 242 249 240 242 240 238 240 227 225 231 237 238 231 217 217 223 204 185 150 222 199 187 194 180 197 194 207 176 183 179 177 165 167 167 158 157 154
235 245 258 258 246 249 239 239 241 235 237 245 244 239 245 214 212 204 201 200 215 163 184 197 183 177 205 177 182 180 170 175 165 170 165 159 152 150
255 247 255 266 275 297 297 281 255 247 237 241 247 254 253 231 214 208 210 207 45 142 179 152 198 169 155 199 171 187 164 165 160 163 163 156 145 148
259 246 249 261 263 279 290 286 283 279 306 270 257 259 253 250 229 216 169 169 192 205 179 135 163 116 145 192 152 202 165 165 162 161 158 151 147 150
283 274 239 244 259 262 258 260 269 267 264 286 289 275 263 259 216 213 192 204 155 163 205 154 146 143 170 214 143 195 172 168 158 155 156 153 140 131
259 259 268 246 249 258 249 245 246 210 263 264 275 285 278 267 246 225 214 205 196 213 185 165 165 161 121 135 130 198 169 156 148 152 150 150 144 155
272 274 212 271 274 271 261 256 263 273 255 260 262 272 268 256 250 259 260 214 208 203 169 178 162 174 132 136 154 171 167 166 148 143 148 146 145 161
257 255 238 235 245 249 246 256 256 249 265 233 249 254 227 263 133 96 23 57 53 35 170 174 162 173 172 159 158 168 150 174 153 143 144 142 139 155
275 261 245 253 235 229 240 227 216 243 234 261 256 253 201 203 159 139 144 214 83 52 42 59 97 132 102 94 134 148 134 169 146 139 136 133 152 174
302 273 266 235 278 275 268 277 280 270 263 254 246 231 244 175 165 155 130 129 128 151 122 94 90 91 80 108 127 134 113 123 126 129 138 150 162 168
274 260 258 248 250 269 284 293 267 238 251 264 240 210 208 188 155 123 123 126 133 141 136 128 123 111 100 61 91 126 92 130 145 146 145 153 151 152
257 259 249 231 258 271 273 274 277 275 272 261 249 208 190 179 163 154 143 137 136 138 138 142 134 129 129 129 102 141 148 147 160 152 151 150 162 178
226 243 252 253 257 267 271 260 254 252 236 229 230 216 200 182 174 164 157 159 146 143 152 156 140 151 142 138 139 128 148 130 166 157 144 125 102 136
202 185 249 264 283 279 265 242 219 217 233 219 193 204 205 189 183 173 157 154 149 141 140 131 95 101 104 106 112 108 94 107 138 157 142 133 128 131
19 337 301 292 273 258 258 215 165 137 130 122 93 76 35 114 161 148 138 132 116 112 105 93 91 93 108 125 135 117 117 133 95 141 142 135 160 180
28 22 2 345 336 337 39 87 96 105 96 91 78 75 80 92 71 68 64 82 103 105 109 106 96 72 89 113 124 113 132 136 121 140 135 128 106 92